Weather History for Chandler, OK

Change the Weather History Date:

Wednesday, February 6, 2013

  Actual Average (KCUH) Record (KCUH)
Temperature  
Mean Temperature 53 °F -  
Max Temperature 62 °F 45 °F 77 °F (1963)
Min Temperature 44 °F 23 °F 1 °F (1982)
Degree Days  
Heating Degree Days 12    
Growing Degree Days 3 (Base 50)    
Moisture  
Dew Point 51 °F    
Average Humidity 94    
Maximum Humidity 100    
Minimum Humidity 76    
Precipitation  
Precipitation 0.00 in - - ()
Sea Level Pressure  
Sea Level Pressure 29.97 in    
Wind  
Wind Speed 7 mph (SE)    
Max Wind Speed 18 mph    
Max Gust Speed 24 mph    
Visibility 6 miles    
Events Fog , Rain    
Averages and records for this station are not official NWS values.
T = Trace of Precipitation, MM = Missing Value Source: NWS Daily Summary

Daily Weather History Graph

Daily Weather History Graph

Search for Another Location

Airport:

Trip Planner

Search our weather history database for the weather conditions in past years. The results will help you decide how hot, cold, wet, or windy it might be!

Date:

Astronomy

Feb. 06, 2013 Rise Set
Actual Time 7:22 AM CST 6:00 PM CST
Civil Twilight 6:56 AM CST 6:26 PM CST
Nautical Twilight 6:26 AM CST 6:57 PM CST
Astronomical Twilight 5:56 AM CST 7:27 PM CST
Moon 4:04 AM CST (2/6) 2:23 PM CST (2/6)
Length of Visible Light 11h 30m
Length of Day
10h 37m
Waning Crescent, 17% of the Moon is Illuminated
Feb 6
Waning Crescent
Feb 10
New
Feb 17
First Quarter
Feb 25
Full
Mar 4
Last Quarter

Hourly Weather History & Observations

Time (CST) Temp. Windchill Dew Point Humidity Pressure Visibility Wind Dir Wind Speed Gust Speed Precip Events Conditions
12:15 AM 44.6 °F 43.1 °F 37.4 °F 76% 30.04 in 10.0 mi ESE 3.5 mph - N/A   Clear
12:35 AM 44.6 °F 42.2 °F 37.4 °F 76% 30.04 in 10.0 mi SE 4.6 mph - N/A   Clear
12:55 AM 46.4 °F 45.2 °F 41.0 °F 81% 30.04 in 10.0 mi SE 3.5 mph - N/A   Clear
1:15 AM 44.6 °F 42.2 °F 42.8 °F 93% 30.04 in 10.0 mi ESE 4.6 mph - N/A   Clear
1:35 AM 46.4 °F 45.2 °F 46.4 °F 100% 30.04 in 5.0 mi SSE 3.5 mph - N/A   Clear
1:55 AM 44.6 °F 43.1 °F 44.6 °F 100% 30.04 in 1.2 mi SE 3.5 mph - N/A   Mostly Cloudy
2:15 AM 44.6 °F 43.1 °F 44.6 °F 100% 30.04 in 0.2 mi ESE 3.5 mph - N/A Fog Fog
2:35 AM 44.6 °F 42.2 °F 44.6 °F 100% 30.04 in 0.2 mi ESE 4.6 mph - N/A   Unknown
2:55 AM 44.6 °F - 44.6 °F 100% 30.03 in 0.2 mi Calm Calm - N/A Rain Light Rain
3:15 AM 44.6 °F 43.1 °F 44.6 °F 100% 30.03 in 0.2 mi ESE 3.5 mph - N/A   Unknown
3:35 AM 44.6 °F 42.2 °F 44.6 °F 100% 30.02 in 0.2 mi ESE 4.6 mph - N/A   Unknown
3:55 AM 44.6 °F 43.1 °F 44.6 °F 100% 30.02 in 0.2 mi SE 3.5 mph - N/A   Unknown
4:15 AM 44.6 °F 42.2 °F 44.6 °F 100% 30.02 in 0.2 mi SE 4.6 mph - N/A   Unknown
4:35 AM 44.6 °F 42.2 °F 44.6 °F 100% 30.02 in 0.2 mi East 4.6 mph - N/A Rain Light Rain
4:55 AM 44.6 °F 42.2 °F 44.6 °F 100% 30.03 in 0.2 mi East 4.6 mph - N/A   Unknown
5:15 AM 44.6 °F 42.2 °F 44.6 °F 100% 30.03 in 0.2 mi ESE 4.6 mph - N/A   Unknown
5:35 AM 44.6 °F - 44.6 °F 100% 30.04 in 0.2 mi Calm Calm - N/A Fog Fog
5:55 AM 44.6 °F 43.1 °F 44.6 °F 100% 30.04 in 0.2 mi SE 3.5 mph - N/A Rain Light Rain
6:15 AM 44.6 °F 43.1 °F 44.6 °F 100% 30.04 in 0.2 mi SE 3.5 mph - N/A Rain Light Rain
6:35 AM 44.6 °F 42.2 °F 44.6 °F 100% 30.03 in 0.2 mi ESE 4.6 mph - N/A Rain Light Rain
6:55 AM 44.6 °F 43.1 °F 44.6 °F 100% 30.03 in 0.2 mi SE 3.5 mph - N/A Rain Light Rain
7:35 AM 44.6 °F 43.1 °F 44.6 °F 100% 30.04 in 1.5 mi ESE 3.5 mph - N/A   Overcast
7:55 AM 44.6 °F 42.2 °F 44.6 °F 100% 30.04 in 1.8 mi ESE 4.6 mph - N/A   Overcast
8:15 AM 44.6 °F 40.7 °F 44.6 °F 100% 30.04 in 2.0 mi ESE 6.9 mph - N/A   Overcast
8:35 AM 46.4 °F 43.5 °F 46.4 °F 100% 30.05 in 2.5 mi SE 5.8 mph - N/A   Overcast
8:55 AM 46.4 °F 44.3 °F 46.4 °F 100% 30.04 in 2.5 mi ESE 4.6 mph - N/A   Overcast
9:15 AM 48.2 °F - 48.2 °F 100% 30.04 in 3.0 mi SE 5.8 mph - N/A   Overcast
9:35 AM 50.0 °F - 50.0 °F 100% 30.04 in 4.0 mi SE 5.8 mph - N/A   Overcast
9:55 AM 50.0 °F - 50.0 °F 100% 30.04 in 5.0 mi SSE 5.8 mph - N/A   Overcast
10:15 AM 51.8 °F - 51.8 °F 100% 30.04 in 5.0 mi SE 5.8 mph - N/A   Overcast
10:35 AM 51.8 °F - 51.8 °F 100% 30.03 in 7.0 mi SE 5.8 mph - N/A   Overcast
10:55 AM 53.6 °F - 53.6 °F 100% 30.02 in 10.0 mi SE 9.2 mph - N/A   Overcast
11:15 AM 55.4 °F - 55.4 °F 100% 30.02 in 10.0 mi SE 9.2 mph - N/A   Overcast
11:35 AM 59.0 °F - 55.4 °F 88% 30.00 in 10.0 mi SE 11.5 mph 16.1 mph N/A   Overcast
11:55 AM 60.8 °F - 57.2 °F 88% 29.99 in 10.0 mi SSE 13.8 mph - N/A   Overcast
12:15 PM 60.8 °F - 57.2 °F 88% 29.98 in 10.0 mi SSE 12.7 mph 18.4 mph N/A   Overcast
12:35 PM 60.8 °F - 57.2 °F 88% 29.97 in 10.0 mi SSE 12.7 mph - N/A   Overcast
12:55 PM 62.6 °F - 59.0 °F 88% 29.96 in 10.0 mi SSE 13.8 mph - N/A   Overcast
1:15 PM 62.6 °F - 59.0 °F 88% 29.95 in 7.0 mi SSE 12.7 mph 16.1 mph N/A   Overcast
1:35 PM 62.6 °F - 59.0 °F 88% 29.94 in 7.0 mi SSE 11.5 mph 18.4 mph N/A   Overcast
1:55 PM 62.6 °F - 59.0 °F 88% 29.92 in 7.0 mi SSE 18.4 mph - N/A   Overcast
2:15 PM 62.6 °F - 59.0 °F 88% 29.91 in 7.0 mi SSE 13.8 mph 19.6 mph N/A   Overcast
2:35 PM 62.6 °F - 59.0 °F 88% 29.90 in 7.0 mi SSE 18.4 mph - N/A   Overcast
2:55 PM 62.6 °F - 59.0 °F 88% 29.90 in 7.0 mi SSE 13.8 mph 20.7 mph N/A   Overcast
3:35 PM 60.8 °F - 59.0 °F 94% 29.89 in 5.0 mi SE 16.1 mph 21.9 mph N/A   Overcast
3:55 PM 60.8 °F - 60.8 °F 100% 29.90 in 5.0 mi SSE 15.0 mph 20.7 mph N/A   Overcast
4:15 PM 60.8 °F - 60.8 °F 100% 29.89 in 5.0 mi SSE 13.8 mph 18.4 mph N/A   Overcast
4:35 PM 60.8 °F - 59.0 °F 94% 29.88 in 7.0 mi SSE 11.5 mph - N/A   Overcast
4:55 PM 60.8 °F - 57.2 °F 88% 29.89 in 10.0 mi South 11.5 mph 21.9 mph N/A   Overcast
5:15 PM 60.8 °F - 55.4 °F 82% 29.88 in 10.0 mi SSE 10.4 mph 16.1 mph N/A   Overcast
5:35 PM 60.8 °F - 55.4 °F 82% 29.88 in 10.0 mi SSE 12.7 mph 17.3 mph N/A   Overcast
5:55 PM 60.8 °F - 55.4 °F 82% 29.88 in 10.0 mi SSE 12.7 mph 19.6 mph N/A   Overcast
6:15 PM 60.8 °F - 55.4 °F 82% 29.88 in 10.0 mi SSE 12.7 mph - N/A   Overcast
6:35 PM 60.8 °F - 55.4 °F 82% 29.88 in 10.0 mi SSE 11.5 mph 18.4 mph N/A   Overcast
6:55 PM 60.8 °F - 55.4 °F 82% 29.89 in 10.0 mi SSE 13.8 mph 21.9 mph N/A   Overcast
7:15 PM 60.8 °F - 53.6 °F 77% 29.88 in 10.0 mi SSE 10.4 mph - N/A   Overcast
7:35 PM 59.0 °F - 53.6 °F 82% 29.89 in 10.0 mi SSE 9.2 mph - N/A   Scattered Clouds
7:55 PM 57.2 °F - 53.6 °F 88% 29.89 in 10.0 mi SSE 6.9 mph - N/A   Mostly Cloudy
8:15 PM 57.2 °F - 53.6 °F 88% 29.90 in 10.0 mi SSE 10.4 mph - N/A   Mostly Cloudy
8:35 PM 55.4 °F - 53.6 °F 94% 29.90 in 10.0 mi SSE 8.1 mph - N/A   Mostly Cloudy
8:55 PM 55.4 °F - 55.4 °F 100% 29.90 in 10.0 mi SSE 12.7 mph 19.6 mph N/A   Overcast
9:15 PM 55.4 °F - 55.4 °F 100% 29.90 in 10.0 mi SE 11.5 mph - N/A   Overcast
9:35 PM 55.4 °F - 55.4 °F 100% 29.90 in 10.0 mi SSE 11.5 mph 17.3 mph N/A   Overcast
9:55 PM 55.4 °F - 55.4 °F 100% 29.90 in 10.0 mi SSE 16.1 mph - N/A   Overcast
10:15 PM 55.4 °F - 55.4 °F 100% 29.90 in 10.0 mi SSE 13.8 mph 19.6 mph N/A   Overcast
10:35 PM 55.4 °F - 55.4 °F 100% 29.90 in 10.0 mi SSE 13.8 mph 18.4 mph N/A   Overcast
10:55 PM 55.4 °F - 55.4 °F 100% 29.91 in 10.0 mi SSE 16.1 mph 24.2 mph N/A   Overcast
11:15 PM 53.6 °F - 53.6 °F 100% 29.90 in 10.0 mi South 16.1 mph 24.2 mph N/A   Overcast
11:35 PM 53.6 °F - 53.6 °F 100% 29.90 in 7.0 mi South 12.7 mph 21.9 mph N/A   Overcast
11:55 PM 53.6 °F - 53.6 °F 100% 29.90 in 7.0 mi South 11.5 mph 21.9 mph N/A   Overcast